sat.trackr.live / text

‹ back to catalog

STARLINK-31048

NORAD 58544 · 2023-192P

PAYLOAD ACTIVE UNKNOWN

§ Identity

Operator
Country
US
Launch date
2023-12-08
Launch site
AFWTR
Launch vehicle
Mass (kg)
RCS (m²)

Purposes: comms

External: N2YO · Heavens-Above · Gunter

§ Orbital elements

Epoch: 2026-09-20T15:03:46.146816Z

Period
93.85 min
Inclination
53.1577°
Eccentricity
0.0001360
Mean motion
15.34393749 rev/d
Perigee alt
461.8 km
Apogee alt
463.7 km
Semi-major
6,840.9 km
B*
5.6598e-5
RAAN
234.9361°
Arg perigee
92.1647°
Mean anomaly
267.9511°
Rev number
15,586

§ Raw data

STARLINK-310481 58544U 23192P   26263.62761744  .00001536  00000+0  56598-4 0  99902 58544  53.1577 234.9361 0001360  92.1647 267.9511 15.34393749155867

JSON: /api/v1/satellites/58544 · /tle

For live sub-satellite position, see the globe view (requires WebGL).

§ Visibility from observer

Set your observer location to see the next 7 days of passes ≥ 10°. The values pass through the URL so the page stays shareable.

No JS? Fill the form by hand. The geolocation button needs JavaScript.